User: anonymous   Login
Location: Theydon Bois
(51.6750°N, 0.1050°E)
Time: 01:26:35
(UTC+01:00)
Language:

Cosmos 923 Rocket - Orbit

View from above orbital plane
View from above orbital plane
View from above satellite
View from above satellite

Ground track
Ground track

The orbit data is extracted from the following two-line orbital elements,

1 10121U 77059B   18197.30318804 -.00000005 +00000-0 +74081-5 0  9997
2 10121 074.0477 128.8023 0018404 020.2742 339.9138 14.35867848146195
Epoch (UTC): 16 July 2018 07:16:35
Eccentricity: 0.0018404
inclination: 74.0477°
perigee height: 759 km
apogee height: 785 km
right ascension of ascending node: 128.8023°
argument of perigee: 20.2742°
revolutions per day: 14.35867848
mean anomaly at epoch: 339.9138°
orbit number at epoch: 14619

The dashed part of the orbit path shows where the satellite is in the earth's shadow,  

DLR